Regional Weather Roundup
Issued by NWS

Home | Current Version | Previous Version | Text Only | Print | Product List | Glossary Off
Versions: 1 2 3 4 5 6 7 8 9 10 11 12 13 14 15 16 17 18 19 20 21 22 23 24 25

000
ASUS45 KCYS 180110
RWRWY

WYOMING REGIONAL WEATHER ROUNDUP
NATIONAL WEATHER SERVICE CHEYENNE WY
600 PM MST SAT FEB 17 2018

NOTE:  "FAIR" INDICATES FEW OR NO CLOUDS BELOW 12,000 FEET
WITH NO SIGNIFICANT WEATHER AND/OR OBSTRUCTIONS TO VISIBILITY.

WYZ001-180200-
YELLOWSTONE NATIONAL PARK

CITY           SKY/WX    TMP DP  RH WIND       PRES   REMARKS
LK YELLOWSTONE   N/A     22  19  89 W8        29.66F WCI  12
W YELLOWSTONE  NOT AVBL

$$
WYZ002>013-054>058-071-098>099-180200-
NORTHERN WYOMING

CITY           SKY/WX    TMP DP  RH WIND       PRES   REMARKS
JACKSON        FLURRIES  32  20  61 SW15G25   29.75F WCI  22
CODY           FAIR      38  21  50 W14G21    29.55F WCI  30
GREYBULL       FAIR      37  23  56 SE3       29.60F
WORLAND        FAIR      26  21  81 S8        29.61F WCI  18
SHERIDAN       FAIR      27  22  81 NW5       29.60F WCI  22
BUFFALO        FAIR      31  22  69 NW6       29.58F WCI  25
GILLETTE       FAIR      33  22  63 S12       29.62F WCI  24
HULETT         CLOUDY    27  19  74 NW3       29.68F
NEWCASTLE      FAIR      30  21  69 SE13      29.73F WCI  20

$$
WYZ014>020-022>026-101>103-180200-
CENTRAL WYOMING

CITY           SKY/WX    TMP DP  RH WIND       PRES   REMARKS
BIG PINEY      FAIR      34  10  37 W17       29.83F WCI  23
PINEDALE       CLOUDY    32  18  55 S8        29.85S WCI  25
DUBOIS           N/A    N/A N/A N/A MISG        N/A
LANDER         FAIR      42  14  32 SW23G51   29.68F
RIVERTON       FAIR      38  16  40 SW12      29.69F WCI  30
CASPER         FAIR      42  11  28 SW23G35   29.71F
DOUGLAS        FAIR      42  13  30 SW5       29.72F

$$
WYZ021-027>030-104>119-180200-
SOUTHERN WYOMING

CITY           SKY/WX    TMP DP  RH WIND       PRES   REMARKS
EVANSTON       FAIR      39  10  30 SW23      29.91F WCI  28
ROCK SPRINGS   FAIR      43  -2  15 SW17      29.89F
DIXON          CLOUDY    36  20  52 SW10G17   29.99S WCI  28
RAWLINS        FAIR      37   9  31 SW23G39   29.86R WCI  26
SARATOGA       CLOUDY    34  14  44 S8        29.93F WCI  27
LARAMIE        FAIR      35   8  32 SW22      29.88R WCI  23
CHEYENNE       FAIR      41   8  25 S8        29.86F
TORRINGTON     FAIR      47   5  18 SW16      29.80S
PINE BLUFFS    FAIR      37  12  35 MISG      29.86F

$$




USA.gov is the U.S. government's official web portal to all federal, state and local government web resources and services.